Find Starlink 31364

NORAD ID: 59463 Int'l Des: 2024-068 Owner: SPXS Country: US Constellation: starlink operational
LEOCIRCULAR

Current View

Loading 3D Globe...

About Starlink 31364

Starlink 31364 (NORAD 59463) is a starlink constellation satellite (v2 mini) launched Apr 10, 2024 by SPXS of US. It operates in LEO, CIRCULAR orbit with a mass of 730.00 kg.

About Starlink 31364

Description loading...

Upcoming Passes

Passes for default location (London). Set your location on the main map for personalized predictions.

Altitude History

Loading altitude history...

Two-Line Element Set

1 59463U 24068J 26169.44193856 .00000535 00000-0 28978-4 0 9992
2 59463 43.0015 181.8763 0001584 276.7119 83.3552 15.27577492123974
Epoch: Jun 18, 2026 • Age: 18 hours

Current Status

Altitude 485.8 km
Velocity 7.63 km/s
Sub-Earth Point 37.44°N, 97.05°W
Launch Date Apr 10, 2024
Age 2.1 years
Type internet

Technical Details

Classification Payload
Mass 730.00 kg
Dry Mass 700.00 kg
Total Mass 730.00 kg
Length 0.30 m
Diameter 4.10 m
Span 29.00 m
Shape Box + pan
Manufacturer SPXS
Bus Type Starlink V2M
Phase Status In Orbit
Owner/State SPXS/US

Most Searched